Wind_Speed
5 6 6 6 6 6 6 7 8 9 9 10 10 11 12 12 13 14 14 14 14 14 13 13 13 12 12 12 12 12 12 11 11 11 11 11 10 10 10 9 9 9 9
6 7 7 7 7 7 8 8 9 9 10 10 11 11 12 13 14 14 14 14 15 15 15 14 14 14 14 14 14 13 13 13 12 12 12 12 12 11 11 11 11 10 10
8 8 8 8 8 9 9 10 10 10 11 11 11 12 13 14 14 14 14 15 15 15 15 16 15 15 15 15 15 15 14 14 14 13 13 13 13 13 12 12 11 11 11
9 9 9 10 10 10 10 11 11 11 12 13 13 13 14 14 14 15 15 15 16 16 16 16 16 16 16 16 16 16 16 16 15 15 15 14 14 14 14 13 12 12 11
9 10 10 10 11 11 11 12 13 13 13 14 15 15 15 15 15 15 16 16 17 17 17 17 17 17 17 17 17 17 17 17 17 16 16 16 15 15 15 14 13 13 13
11 11 12 12 12 12 12 13 14 14 15 15 16 16 16 16 16 16 17 17 17 18 18 18 19 18 18 18 18 18 18 17 18 17 17 16 16 16 16 16 15 14 14
12 12 13 13 13 13 14 14 15 16 16 17 17 17 18 18 18 18 18 18 18 18 18 19 20 19 19 19 19 19 18 18 18 18 17 17 17 17 17 16 16 16 15
13 14 14 15 15 15 15 16 16 17 18 18 19 19 19 19 19 19 19 19 19 19 19 20 20 20 20 20 19 19 19 19 19 19 19 18 18 18 17 18 18 18 17
16 15 15 16 17 17 17 17 18 18 18 19 19 19 20 20 20 20 20 20 21 21 21 21 21 21 21 20 20 20 20 20 19 20 20 20 20 19 19 19 18 18 18
18 17 17 17 18 18 18 19 19 20 20 20 20 20 21 21 21 21 21 22 22 22 22 22 23 22 22 22 21 21 21 21 20 21 21 21 21 21 20 19 18 18 19
18 17 18 18 19 20 20 20 20 20 20 20 21 21 22 23 23 22 22 22 22 22 23 23 23 23 23 22 22 22 22 22 22 22 23 22 22 23 22 21 21 20 20
19 19 20 20 20 21 21 21 21 21 21 21 22 22 23 23 24 23 23 23 24 24 23 23 23 24 23 23 23 23 23 23 24 24 24 24 23 23 23 23 22 22 21
19 20 21 21 21 21 22 22 23 23 22 22 23 23 23 24 24 24 24 24 23 23 23 24 24 24 24 24 24 24 23 23 23 24 24 25 25 24 23 24 24 23 22
20 21 22 22 23 24 24 24 25 24 25 25 24 23 23 24 25 25 25 24 24 24 24 24 25 25 25 24 25 25 25 24 24 24 24 25 25 25 25 25 25 25 24
21 23 24 24 24 25 26 26 26 26 26 25 24 24 24 24 24 25 25 24 24 24 24 24 25 26 26 25 25 25 26 25 24 25 26 25 25 25 26 26 26 26 26
22 23 25 26 26 26 27 27 27 27 26 26 26 25 26 25 25 25 25 24 24 25 25 25 26 26 26 26 26 26 26 26 26 25 26 26 26 26 27 27 27 27 27
23 24 26 27 27 27 27 27 28 28 27 27 27 27 27 26 26 25 25 24 24 24 25 25 25 26 26 26 27 26 26 27 27 27 27 27 27 27 27 28 28 28 28
23 24 25 26 27 27 27 27 28 29 29 28 28 28 27 27 26 25 25 25 25 25 25 25 25 26 26 26 26 27 27 27 27 27 27 27 27 28 28 28 29 29 30
24 24 26 27 28 27 26 26 28 28 28 29 28 27 27 26 25 24 25 25 25 25 26 26 26 26 26 27 26 26 26 26 26 26 27 27 28 29 29 30 30 29 29
25 25 27 27 27 27 28 27 28 28 28 28 28 27 27 26 24 24 25 25 26 26 27 26 26 27 26 26 26 25 25 25 25 26 27 27 28 29 30 30 30 30 30
26 27 27 27 27 29 28 28 28 28 28 28 27 27 26 26 25 25 25 25 26 27 27 27 27 27 26 26 26 25 25 26 26 26 27 27 28 29 29 29 31 31 31
27 27 27 27 27 27 28 28 28 28 27 26 26 25 25 25 25 24 25 25 26 26 27 27 27 27 27 27 26 26 26 26 27 27 27 27 28 29 29 29 30 31 32
26 27 27 25 26 26 27 26 27 26 25 24 24 25 25 25 24 24 25 25 26 27 27 26 26 26 26 26 26 26 26 26 26 27 27 28 28 28 29 30 30 31 32
27 26 25 24 24 25 26 25 25 24 24 24 25 26 26 25 25 25 24 25 25 26 25 25 25 26 25 25 26 26 27 27 27 27 27 27 28 29 29 31 31 32 32
26 25 24 24 23 24 24 24 24 23 23 24 24 25 24 24 24 24 24 24 25 25 25 24 24 25 24 25 26 26 27 27 27 27 27 28 28 29 29 30 31 32 32
26 26 26 25 24 23 23 23 22 21 22 22 22 23 23 23 23 24 24 24 24 24 24 24 24 24 24 25 25 26 27 27 28 28 28 28 29 29 30 30 30 31 32
Wind_Direction
333 335 332 330 329 327 327 325 324 324 321 320 319 316 314 312 308 307 305 305 305 303 301 299 297 294 291 288 287 287 286 284 282 278 271 267 267 266 265 263 262 261 257
323 324 322 322 321 318 319 319 316 315 315 314 314 314 312 307 305 304 304 304 303 302 300 299 297 293 291 288 288 286 285 283 281 279 274 270 267 267 266 263 261 261 258
316 318 319 315 314 314 314 312 312 310 310 309 308 308 307 306 303 301 300 299 299 299 297 297 296 293 291 288 286 285 284 282 280 278 277 273 269 268 267 265 263 260 259
308 311 314 314 312 311 312 312 310 310 309 308 306 306 305 303 301 298 297 295 295 295 295 295 295 293 290 288 285 284 283 282 279 278 276 275 273 270 267 265 263 261 260
304 306 310 311 308 306 307 309 307 306 307 306 305 304 304 302 299 298 296 294 292 292 293 292 292 290 289 287 285 283 282 282 279 278 277 276 275 273 268 264 263 262 260
302 303 305 306 304 303 303 303 303 302 304 304 303 301 300 299 297 296 295 293 292 291 290 289 288 287 286 285 284 284 281 279 278 277 278 276 276 273 267 263 261 260 259
298 300 302 302 302 300 300 300 302 301 302 302 303 301 299 297 295 294 293 292 291 290 288 286 285 283 283 282 281 279 280 278 277 277 275 275 275 273 270 264 261 259 256
295 295 297 297 297 297 296 297 298 299 300 300 300 301 299 298 295 293 292 291 290 289 287 285 283 281 281 280 279 277 276 275 274 275 274 272 273 272 269 267 263 260 256
297 296 295 295 294 294 294 295 296 297 296 297 298 300 300 299 297 295 292 291 290 290 288 285 281 280 279 279 278 275 273 272 272 272 273 272 272 271 270 269 262 258 257
295 295 296 296 295 294 293 293 294 295 294 295 297 297 297 296 295 293 293 292 291 290 289 287 283 282 279 277 276 274 272 270 269 269 269 271 271 270 269 265 261 260 257
294 294 293 294 293 293 294 293 293 295 295 294 294 295 294 293 292 292 292 291 289 289 288 287 286 281 278 276 274 273 270 270 268 267 267 267 269 269 267 262 260 261 259
293 293 290 290 291 290 291 290 291 293 295 295 294 295 294 293 291 290 290 289 287 286 286 286 286 282 278 275 272 272 271 270 268 267 267 265 265 266 265 262 261 262 260
290 291 292 289 291 292 291 290 292 293 294 295 297 294 295 294 291 290 289 287 286 285 284 283 283 282 278 276 274 271 271 271 270 269 266 264 263 262 262 261 260 260 259
289 290 290 289 290 291 290 290 292 294 294 295 296 295 296 298 294 290 290 286 284 283 283 282 281 280 279 277 275 273 271 273 272 269 267 265 264 262 261 261 260 259 259
291 292 290 289 290 290 290 290 292 293 293 294 295 295 295 296 294 292 290 288 285 284 283 283 281 279 278 277 275 273 271 271 270 268 266 265 264 263 262 261 260 259 258
293 292 291 291 291 291 291 292 291 290 291 292 294 295 296 296 294 293 289 287 286 287 285 285 282 278 277 276 273 272 271 268 267 267 264 265 265 264 263 259 259 257 257
293 294 295 296 294 292 291 291 290 290 291 291 293 294 296 295 294 292 289 288 287 288 289 285 283 279 277 276 274 272 269 268 268 266 264 264 264 264 263 261 259 257 256
297 296 296 295 294 291 289 288 289 290 290 292 293 293 294 294 292 290 289 289 290 290 290 288 285 282 279 277 275 272 270 269 268 267 265 264 264 263 263 261 259 258 257
299 296 295 294 293 289 286 285 287 289 290 292 293 293 294 294 290 289 289 289 290 291 292 290 287 283 282 278 275 273 270 269 268 266 266 266 265 265 264 262 261 260 258
300 297 296 295 294 294 291 289 287 288 290 291 293 294 293 292 289 289 290 289 290 291 291 290 287 285 283 280 277 273 271 269 269 267 267 266 266 265 264 262 259 259 260
302 300 296 295 294 296 292 292 289 287 288 290 292 293 292 293 292 291 292 291 290 290 290 289 287 285 283 279 278 276 273 271 270 270 268 267 267 266 264 263 261 260 260
303 301 299 296 294 294 294 294 292 291 289 288 290 291 292 293 293 292 294 292 291 290 290 289 288 285 283 280 278 276 274 272 270 270 268 268 268 267 265 264 263 261 261
305 302 301 300 299 297 299 299 296 293 294 292 291 292 291 292 292 292 293 293 293 293 291 289 289 287 283 280 278 275 272 271 271 271 269 268 268 267 266 265 264 263 262
305 305 305 304 301 300 303 302 299 297 297 296 294 291 290 290 292 293 294 294 294 295 294 292 291 289 284 281 278 275 273 272 270 269 271 270 270 270 268 266 265 265 263
306 308 309 309 306 305 304 304 304 300 298 297 295 295 291 291 293 292 294 294 295 294 295 294 292 290 285 282 280 277 275 274 273 272 271 272 272 271 269 268 267 266 263
306 308 310 309 310 310 306 306 305 302 301 298 296 297 296 295 295 294 294 296 296 294 295 294 294 291 287 284 282 280 277 275 274 274 272 271 271 272 272 271 269 266 263
Height
5901 5899 5899 5898 5898 5897 5896 5895 5895 5894 5893 5892 5890 5889 5888 5887 5886 5884 5883 5882 5881 5880 5878 5877 5876 5875 5874 5873 5872 5871 5870 5870 5869 5869 5868 5867 5867 5866 5866 5865 5865 5865 5865
5900 5899 5898 5898 5897 5896 5895 5894 5894 5892 5891 5890 5889 5888 5887 5885 5884 5883 5881 5880 5879 5878 5877 5875 5874 5873 5872 5871 5870 5869 5868 5868 5867 5867 5866 5865 5865 5864 5864 5863 5863 5862 5862
5898 5898 5897 5896 5896 5895 5894 5893 5892 5891 5890 5889 5888 5886 5885 5884 5882 5881 5879 5878 5877 5875 5874 5873 5872 5871 5870 5869 5868 5867 5866 5865 5864 5864 5864 5863 5862 5862 5862 5861 5861 5860 5860
5897 5896 5896 5895 5894 5894 5893 5892 5891 5889 5888 5887 5886 5884 5883 5882 5880 5879 5877 5876 5874 5873 5872 5871 5869 5868 5867 5867 5866 5865 5864 5863 5862 5861 5861 5860 5860 5860 5859 5859 5858 5858 5858
5896 5895 5894 5893 5893 5892 5891 5890 5889 5887 5886 5885 5884 5882 5881 5879 5878 5876 5875 5873 5872 5871 5869 5868 5867 5866 5864 5863 5862 5861 5861 5860 5859 5858 5858 5857 5857 5857 5856 5856 5856 5856 5856
5894 5893 5892 5891 5891 5890 5889 5888 5886 5885 5884 5882 5881 5879 5878 5877 5875 5873 5872 5870 5869 5868 5866 5865 5864 5863 5861 5860 5859 5858 5857 5857 5856 5855 5855 5854 5854 5853 5853 5853 5853 5853 5853
5892 5891 5890 5889 5888 5887 5886 5885 5884 5882 5881 5879 5878 5876 5875 5873 5872 5870 5868 5867 5866 5864 5863 5861 5860 5859 5858 5857 5856 5855 5854 5853 5852 5852 5852 5851 5851 5850 5850 5850 5850 5850 5850
5889 5888 5887 5886 5885 5884 5883 5882 5880 5879 5877 5876 5874 5873 5871 5870 5868 5866 5865 5863 5862 5860 5859 5857 5856 5855 5854 5853 5852 5851 5850 5849 5849 5848 5848 5848 5847 5847 5847 5847 5846 5846 5847
5886 5885 5884 5884 5882 5881 5880 5878 5877 5875 5874 5872 5871 5869 5867 5866 5864 5862 5860 5859 5857 5856 5855 5853 5852 5850 5849 5848 5847 5846 5846 5845 5845 5844 5844 5844 5843 5843 5843 5843 5843 5843 5843
5884 5882 5881 5880 5879 5878 5876 5875 5873 5872 5870 5868 5867 5865 5863 5861 5860 5858 5856 5854 5853 5851 5850 5848 5847 5845 5845 5844 5843 5842 5841 5840 5840 5840 5839 5839 5839 5838 5838 5838 5838 5839 5839
5881 5879 5878 5877 5876 5874 5873 5871 5869 5867 5866 5864 5862 5860 5858 5857 5855 5853 5851 5849 5848 5846 5845 5843 5842 5840 5839 5838 5837 5837 5836 5836 5835 5835 5834 5834 5834 5833 5833 5833 5834 5834 5835
5877 5876 5875 5873 5872 5870 5869 5866 5864 5863 5861 5859 5857 5855 5853 5851 5850 5848 5846 5844 5842 5841 5839 5838 5836 5835 5834 5833 5832 5831 5831 5830 5829 5829 5829 5829 5828 5828 5828 5828 5829 5829 5830
5873 5872 5871 5870 5868 5866 5864 5862 5860 5859 5857 5855 5852 5850 5848 5846 5844 5842 5841 5839 5837 5835 5834 5832 5831 5830 5829 5827 5826 5825 5825 5824 5824 5823 5823 5822 5823 5823 5822 5823 5823 5824 5824
5869 5868 5867 5866 5864 5862 5860 5857 5855 5854 5852 5849 5847 5845 5843 5841 5839 5837 5836 5833 5831 5830 5828 5826 5825 5824 5823 5822 5821 5820 5819 5818 5818 5817 5817 5816 5816 5817 5817 5817 5817 5818 5819
5865 5863 5862 5861 5859 5857 5855 5853 5850 5849 5846 5844 5842 5840 5838 5836 5834 5832 5830 5828 5826 5824 5822 5821 5819 5818 5817 5816 5815 5813 5813 5812 5811 5811 5810 5810 5810 5810 5810 5810 5811 5811 5812
5861 5859 5857 5855 5853 5851 5849 5847 5845 5843 5841 5839 5837 5835 5832 5830 5828 5826 5824 5822 5820 5818 5816 5815 5813 5812 5811 5810 5808 5807 5806 5805 5805 5804 5803 5803 5803 5803 5803 5804 5804 5804 5805
5856 5854 5852 5849 5847 5845 5843 5841 5839 5837 5835 5833 5830 5828 5826 5824 5822 5820 5818 5816 5814 5812 5810 5808 5807 5805 5804 5803 5802 5800 5799 5798 5798 5797 5797 5796 5796 5796 5796 5797 5797 5797 5798
5851 5848 5846 5844 5841 5839 5837 5835 5832 5830 5827 5826 5824 5822 5819 5817 5815 5813 5811 5809 5807 5805 5804 5802 5800 5799 5797 5796 5795 5793 5792 5791 5791 5790 5790 5789 5789 5790 5790 5790 5790 5790 5791
5845 5843 5841 5838 5835 5832 5829 5827 5825 5822 5820 5819 5817 5814 5812 5810 5808 5806 5804 5803 5801 5799 5797 5795 5793 5792 5790 5788 5787 5786 5785 5784 5784 5783 5783 5782 5782 5782 5782 5782 5782 5782 5783
5839 5837 5834 5831 5829 5825 5822 5819 5818 5816 5814 5812 5810 5808 5806 5803 5801 5800 5798 5796 5794 5792 5790 5788 5786 5784 5783 5781 5780 5779 5778 5777 5777 5776 5775 5775 5775 5774 5774 5774 5775 5775 5775
5834 5831 5828 5826 5823 5820 5817 5813 5811 5809 5807 5805 5803 5801 5799 5797 5795 5793 5791 5788 5786 5784 5782 5780 5778 5777 5775 5774 5773 5771 5771 5770 5769 5769 5768 5767 5767 5766 5766 5766 5767 5767 5767
5828 5825 5822 5820 5817 5814 5811 5808 5806 5803 5800 5799 5797 5795 5793 5791 5788 5786 5784 5782 5780 5777 5775 5773 5771 5769 5768 5766 5765 5764 5763 5763 5762 5761 5760 5760 5759 5758 5758 5758 5758 5758 5759
5823 5820 5816 5813 5810 5807 5804 5802 5799 5797 5794 5792 5790 5788 5786 5784 5782 5779 5777 5775 5772 5770 5768 5765 5763 5762 5760 5758 5757 5756 5755 5755 5754 5753 5752 5751 5751 5750 5750 5749 5750 5750 5750
5817 5813 5809 5806 5804 5801 5798 5796 5793 5791 5789 5786 5784 5782 5780 5777 5775 5773 5770 5768 5765 5763 5760 5758 5755 5754 5752 5750 5749 5748 5747 5747 5746 5745 5744 5743 5742 5742 5741 5740 5740 5740 5740
5811 5807 5804 5802 5799 5796 5793 5790 5787 5785 5783 5780 5778 5776 5773 5771 5769 5766 5763 5760 5758 5756 5753 5751 5748 5746 5744 5742 5741 5740 5739 5738 5737 5737 5736 5735 5733 5733 5732 5731 5731 5731 5731
5806 5803 5799 5797 5794 5791 5788 5785 5782 5780 5777 5775 5773 5770 5768 5765 5762 5759 5756 5753 5751 5749 5746 5744 5741 5738 5736 5734 5733 5731 5730 5729 5728 5728 5727 5726 5725 5724 5723 5722 5721 5721 5721